William P Hobby Airport
KHOU : now visible

Airfield :











YOU CAN JOIN US ON...

 
LOGIN :

Register | Disclaimer

   EN    FR    IT 

 









Legend :    VFR   Marginal VFR   IFR   Intensive IFR   Very Intensive IFR
Visi :
Ceiling :
>= 8 km
>= 3000ft
5 to 8 km
1000 to 3000 ft
1500m to 5 km
500 to 1000 ft
800 to 1500m
200 to 500 ft
< 800m
< 200 ft
Symbols :   Thunderstorms  Fog  Heavy snow  Heavy precipitations  Wind > 20 kt






- Airport Elevation : 46 ft
- IATA code : HOU


KHOU - William P Hobby

CURRENT METAR :
  • 221353Z 06008KT 10SM FEW100 17/07 A3017 RMK AO2 SLP220 T01670067

EXPIRED METARs :
  • 221253Z 06008KT 10SM FEW250 14/06 A3017 RMK AO2 SLP219 T01440056
  • 221153Z 07008KT 10SM FEW100 SCT250 13/06 A3014 RMK AO2 SLP210 T01330056 10150 20133 51019

TAF KHOU
Valid from the 22 at 12:00 until the 23 at 12:00 UTC


221127Z 2212/2312 08007KT P6SM SCT070
FM221600 10013KT P6SM BKN040
FM230200 13012KT P6SM OVC025
FM230500 13010KT P6SM OVC018
KZHU FIR / North America



MET'MAP, your aeronautical weather chart ! - Copyright ORBIFLY December 2007 - Disclaimer

ORBIFLY MET'MAP TEAM :

Programming & Development : Alexandra Zaïnal
Concept & original design : Baudouin d'Aumeries
Assistance for programming : Marc-Olivier Méhu
Technical & hardware support : Manuel Goepfert

Contact : metmap@orbifly.com




SOURCES & CREDITS :

   NOAA       Earth
Advisory